FLI403 BIKF-EKVG

Flight info

Callsign FLI403
Flight time 1h 7m
Altitude 37000
Route OSKUM3C OSKUM DCT MAGNI
Aircraft A320/M-SDE3FGHIRWY/LB1

Departure

Time 2026-04-30 19:38
Airport Keflavik International Airport (BIKF)

Arrival

Time 2026-04-30 20:45
Airport Vágar Airport (EKVG)
Time Latitude Longitude Altitude Speed Heading
2026-04-30 19:00 63.99484 -22.62464 136 ft 0 kts 90°
2026-04-30 19:26 63.99484 -22.62471 145 ft 2 kts 90°
2026-04-30 19:27 63.99485 -22.62539 142 ft 2 kts 94°
2026-04-30 19:27 63.99490 -22.62613 142 ft 2 kts 111°
2026-04-30 19:28 63.99498 -22.62645 142 ft 2 kts 152°
2026-04-30 19:28 63.99494 -22.62642 142 ft 2 kts 157°
2026-04-30 19:29 63.99457 -22.62653 142 ft 3 kts 194°
2026-04-30 19:29 63.99435 -22.62671 142 ft 3 kts 202°
2026-04-30 19:30 63.99422 -22.62684 142 ft 0 kts 204°
2026-04-30 19:31 63.99361 -22.62741 144 ft 9 kts 193°
2026-04-30 19:31 63.99272 -22.62734 142 ft 14 kts 158°
2026-04-30 19:31 63.99172 -22.62575 142 ft 11 kts 88°
2026-04-30 19:32 63.99173 -22.62347 142 ft 14 kts 90°
2026-04-30 19:32 63.99173 -22.62137 142 ft 12 kts 90°
2026-04-30 19:32 63.99173 -22.62102 142 ft 0 kts 90°
2026-04-30 19:32 63.99173 -22.62047 142 ft 6 kts 90°
2026-04-30 19:33 63.99173 -22.61952 142 ft 6 kts 90°
2026-04-30 19:33 63.99173 -22.61795 144 ft 10 kts 90°
2026-04-30 19:33 63.99173 -22.61677 147 ft 5 kts 90°
2026-04-30 19:33 63.99173 -22.61495 151 ft 25 kts 89°
2026-04-30 19:34 63.99174 -22.61398 153 ft 7 kts 89°
2026-04-30 19:34 63.99174 -22.61267 156 ft 14 kts 90°
2026-04-30 19:34 63.99173 -22.60932 163 ft 10 kts 90°
2026-04-30 19:35 63.99174 -22.60817 166 ft 4 kts 90°
2026-04-30 19:35 63.99174 -22.60764 168 ft 3 kts 90°
2026-04-30 19:35 63.99174 -22.60700 170 ft 10 kts 90°
2026-04-30 19:35 63.99133 -22.60541 176 ft 12 kts 175°
2026-04-30 19:36 63.99103 -22.60540 176 ft 0 kts 179°
2026-04-30 19:37 63.99102 -22.60540 176 ft 1 kts 179°
2026-04-30 19:37 63.98925 -22.60541 175 ft 60 kts 180°
2026-04-30 19:37 63.98287 -22.60544 174 ft 120 kts 180°
2026-04-30 19:38 63.97302 -22.60550 328 ft 150 kts 184°
2026-04-30 19:38 63.96268 -22.60582 953 ft 154 kts 184°
2026-04-30 19:38 63.95096 -22.60437 1331 ft 187 kts 173°
2026-04-30 19:38 63.93840 -22.59252 2139 ft 208 kts 145°
2026-04-30 19:39 63.92969 -22.56336 2757 ft 242 kts 114°
2026-04-30 19:39 63.92465 -22.52467 3496 ft 265 kts 106°
2026-04-30 19:39 63.92030 -22.48323 4592 ft 274 kts 107°
2026-04-30 19:39 63.91535 -22.44093 5752 ft 280 kts 109°
2026-04-30 19:40 63.90942 -22.39824 6882 ft 287 kts 112°
2026-04-30 19:40 63.90255 -22.35523 8001 ft 293 kts 115°
2026-04-30 19:40 63.89494 -22.31167 9149 ft 299 kts 116°
2026-04-30 19:40 63.88683 -22.26745 10150 ft 309 kts 117°
2026-04-30 19:41 63.87801 -22.22080 10671 ft 334 kts 118°
2026-04-30 19:41 63.86837 -22.17071 11203 ft 357 kts 118°
2026-04-30 19:41 63.85831 -22.11834 11989 ft 368 kts 117°
2026-04-30 19:41 63.84800 -22.06427 12860 ft 378 kts 117°
2026-04-30 19:42 63.83878 -22.00751 13711 ft 391 kts 108°
2026-04-30 19:42 63.83377 -21.94600 14486 ft 402 kts 98°
2026-04-30 19:42 63.83048 -21.88250 15289 ft 409 kts 99°
2026-04-30 19:42 63.82699 -21.81820 16066 ft 415 kts 99°
2026-04-30 19:43 63.82333 -21.75283 16825 ft 421 kts 99°
2026-04-30 19:43 63.81956 -21.68666 17574 ft 427 kts 99°
2026-04-30 19:43 63.81567 -21.61937 18303 ft 433 kts 100°
2026-04-30 19:44 63.80746 -21.47996 18862 ft 465 kts 99°
2026-04-30 19:44 63.80314 -21.40605 19006 ft 480 kts 99°
2026-04-30 19:44 63.79869 -21.33017 19132 ft 492 kts 99°
2026-04-30 19:44 63.79410 -21.25274 19264 ft 501 kts 99°
2026-04-30 19:45 63.78937 -21.17404 19458 ft 507 kts 100°
2026-04-30 19:45 63.78452 -21.09479 19747 ft 510 kts 100°
2026-04-30 19:45 63.77940 -21.01533 20039 ft 512 kts 103°
2026-04-30 19:45 63.77096 -20.93712 20265 ft 512 kts 107°
2026-04-30 19:46 63.76183 -20.85910 20578 ft 513 kts 107°
2026-04-30 19:46 63.75266 -20.78101 20860 ft 515 kts 108°
2026-04-30 19:46 63.74344 -20.70280 21155 ft 517 kts 108°
2026-04-30 19:46 63.73410 -20.62407 21427 ft 519 kts 108°
2026-04-30 19:47 63.72467 -20.54539 21721 ft 521 kts 108°
2026-04-30 19:47 63.71837 -20.49314 21896 ft 522 kts 108°
2026-04-30 19:47 63.70795 -20.38592 22235 ft 526 kts 102°
2026-04-30 19:47 63.70179 -20.30456 22471 ft 528 kts 102°
2026-04-30 19:48 63.69553 -20.22261 22649 ft 530 kts 102°
2026-04-30 19:48 63.68924 -20.14088 22792 ft 533 kts 102°
2026-04-30 19:48 63.68283 -20.05818 22940 ft 535 kts 102°
2026-04-30 19:48 63.67637 -19.97555 23069 ft 537 kts 102°
2026-04-30 19:49 63.66982 -19.89253 23214 ft 538 kts 102°
2026-04-30 19:49 63.65650 -19.72651 23491 ft 540 kts 102°
2026-04-30 19:49 63.64972 -19.64305 23617 ft 540 kts 102°
2026-04-30 19:50 63.64292 -19.56014 23679 ft 539 kts 102°
2026-04-30 19:50 63.63609 -19.47720 23802 ft 538 kts 102°
2026-04-30 19:50 63.62927 -19.39467 23918 ft 537 kts 102°
2026-04-30 19:50 63.62242 -19.31219 24037 ft 536 kts 102°
2026-04-30 19:51 63.61552 -19.22993 24151 ft 535 kts 103°
2026-04-30 19:51 63.60853 -19.14769 24273 ft 535 kts 103°
2026-04-30 19:51 63.60152 -19.06565 24386 ft 534 kts 103°
2026-04-30 19:51 63.59451 -18.98398 24508 ft 533 kts 103°
2026-04-30 19:52 63.58745 -18.90208 24624 ft 532 kts 103°
2026-04-30 19:52 63.58037 -18.82049 24745 ft 532 kts 103°
2026-04-30 19:52 63.57335 -18.74010 24877 ft 531 kts 103°
2026-04-30 19:52 63.56619 -18.65884 25000 ft 531 kts 103°
2026-04-30 19:53 63.55897 -18.57753 25122 ft 530 kts 104°
2026-04-30 19:53 63.55169 -18.49654 25246 ft 530 kts 104°
2026-04-30 19:53 63.54436 -18.41563 25371 ft 529 kts 104°
2026-04-30 19:53 63.53701 -18.33475 25497 ft 529 kts 104°
2026-04-30 19:54 63.52963 -18.25397 25626 ft 529 kts 104°
2026-04-30 19:54 63.52224 -18.17314 25754 ft 529 kts 104°
2026-04-30 19:54 63.51481 -18.09272 25870 ft 528 kts 104°
2026-04-30 19:54 63.50728 -18.01203 26003 ft 528 kts 104°
2026-04-30 19:55 63.49973 -17.93163 26128 ft 528 kts 104°
2026-04-30 19:55 63.49214 -17.85109 26270 ft 527 kts 105°
2026-04-30 19:55 63.48456 -17.77102 26398 ft 526 kts 105°
2026-04-30 19:55 63.47692 -17.69099 26523 ft 526 kts 105°
2026-04-30 19:56 63.46927 -17.61114 26655 ft 525 kts 105°
2026-04-30 19:56 63.46162 -17.53182 27180 ft 514 kts 105°
2026-04-30 19:56 63.45424 -17.45542 28317 ft 495 kts 105°
2026-04-30 19:56 63.44699 -17.38085 29050 ft 488 kts 105°
2026-04-30 19:57 63.43970 -17.30693 29468 ft 487 kts 105°
2026-04-30 19:57 63.43231 -17.23290 29792 ft 488 kts 105°
2026-04-30 19:57 63.42488 -17.15879 30065 ft 490 kts 105°
2026-04-30 19:57 63.41740 -17.08443 30295 ft 491 kts 105°
2026-04-30 19:58 63.40987 -17.00995 30505 ft 492 kts 106°
2026-04-30 19:58 63.40230 -16.93558 30775 ft 492 kts 106°
2026-04-30 19:58 63.39468 -16.86109 31015 ft 493 kts 106°
2026-04-30 19:58 63.38713 -16.78751 31320 ft 492 kts 106°
2026-04-30 19:59 63.37946 -16.71324 31572 ft 491 kts 106°
2026-04-30 19:59 63.37178 -16.63921 31842 ft 491 kts 107°
2026-04-30 19:59 63.35625 -16.48981 32381 ft 491 kts 107°
2026-04-30 20:00 63.34857 -16.41664 32640 ft 491 kts 107°
2026-04-30 20:00 63.34074 -16.34270 32876 ft 492 kts 107°
2026-04-30 20:00 63.33284 -16.26854 33160 ft 491 kts 107°
2026-04-30 20:00 63.32491 -16.19464 33441 ft 491 kts 108°
2026-04-30 20:01 63.30893 -16.04709 33982 ft 491 kts 108°
2026-04-30 20:01 63.30090 -15.97330 34207 ft 491 kts 108°
2026-04-30 20:01 63.29281 -15.89937 34407 ft 491 kts 108°
2026-04-30 20:02 63.27655 -15.75188 34789 ft 492 kts 108°
2026-04-30 20:02 63.26836 -15.67814 34962 ft 492 kts 108°
2026-04-30 20:03 63.25181 -15.53046 35322 ft 493 kts 108°
2026-04-30 20:03 63.24630 -15.48139 35445 ft 493 kts 108°
2026-04-30 20:03 63.23514 -15.38253 35656 ft 494 kts 108°
2026-04-30 20:03 63.22670 -15.30867 35816 ft 494 kts 108°
2026-04-30 20:04 63.21251 -15.18591 36019 ft 495 kts 109°
2026-04-30 20:04 63.20390 -15.11203 36170 ft 495 kts 109°
2026-04-30 20:05 63.18668 -14.96446 36481 ft 495 kts 108°
2026-04-30 20:05 63.17804 -14.89056 36625 ft 495 kts 108°
2026-04-30 20:05 63.16068 -14.74308 36945 ft 495 kts 108°
2026-04-30 20:06 63.14303 -14.59491 37002 ft 501 kts 109°
2026-04-30 20:06 63.12491 -14.44520 37005 ft 507 kts 109°
2026-04-30 20:07 63.10648 -14.29422 37013 ft 511 kts 109°
2026-04-30 20:08 63.07823 -14.06606 37016 ft 516 kts 109°
2026-04-30 20:08 63.05912 -13.91306 37009 ft 518 kts 109°
2026-04-30 20:09 63.03989 -13.76026 37015 ft 518 kts 109°
2026-04-30 20:09 63.01075 -13.53160 37031 ft 519 kts 109°
2026-04-30 20:10 62.98092 -13.30237 37039 ft 520 kts 110°
2026-04-30 20:11 62.95088 -13.07338 37036 ft 520 kts 110°
2026-04-30 20:11 62.93064 -12.92086 37043 ft 520 kts 110°
2026-04-30 20:12 62.89985 -12.69275 37038 ft 519 kts 110°
2026-04-30 20:13 62.87924 -12.54109 37050 ft 518 kts 111°
2026-04-30 20:13 62.85852 -12.39032 37046 ft 516 kts 111°
2026-04-30 20:14 62.83762 -12.23997 37060 ft 516 kts 111°
2026-04-30 20:14 62.81663 -12.09010 37060 ft 515 kts 111°
2026-04-30 20:15 62.79548 -11.94063 37058 ft 514 kts 112°
2026-04-30 20:15 62.77420 -11.79157 37062 ft 513 kts 112°
2026-04-30 20:16 62.75349 -11.64256 37068 ft 513 kts 111°
2026-04-30 20:16 62.73308 -11.49489 37070 ft 513 kts 111°
2026-04-30 20:17 62.71226 -11.34636 37001 ft 513 kts 112°
2026-04-30 20:17 62.70175 -11.27238 36777 ft 510 kts 112°
2026-04-30 20:17 62.69123 -11.19896 36447 ft 506 kts 112°
2026-04-30 20:17 62.68072 -11.12600 36113 ft 502 kts 113°
2026-04-30 20:18 62.67033 -11.05383 35894 ft 498 kts 114°
2026-04-30 20:18 62.65993 -10.98194 35458 ft 499 kts 114°
2026-04-30 20:18 62.64944 -10.90995 35012 ft 500 kts 114°
2026-04-30 20:18 62.63887 -10.83774 34558 ft 501 kts 115°
2026-04-30 20:19 62.62826 -10.76557 34118 ft 501 kts 115°
2026-04-30 20:19 62.61764 -10.69352 33627 ft 500 kts 115°
2026-04-30 20:19 62.60703 -10.62171 33152 ft 500 kts 115°
2026-04-30 20:19 62.59637 -10.54978 32668 ft 499 kts 115°
2026-04-30 20:20 62.58570 -10.47807 32202 ft 499 kts 116°
2026-04-30 20:20 62.57502 -10.40659 31739 ft 498 kts 116°
2026-04-30 20:20 62.56431 -10.33519 31268 ft 498 kts 117°
2026-04-30 20:20 62.55352 -10.26379 30813 ft 498 kts 117°
2026-04-30 20:21 62.54270 -10.19251 30375 ft 497 kts 118°
2026-04-30 20:21 62.53185 -10.12138 29897 ft 497 kts 118°
2026-04-30 20:21 62.52102 -10.05048 29391 ft 497 kts 118°
2026-04-30 20:21 62.51014 -9.97934 28884 ft 497 kts 117°
2026-04-30 20:22 62.49928 -9.90852 28391 ft 497 kts 117°
2026-04-30 20:22 62.48831 -9.83746 27882 ft 497 kts 117°
2026-04-30 20:22 62.47734 -9.76673 27291 ft 497 kts 118°
2026-04-30 20:22 62.46630 -9.69580 26802 ft 497 kts 118°
2026-04-30 20:23 62.45519 -9.62502 26316 ft 497 kts 118°
2026-04-30 20:23 62.44401 -9.55430 25817 ft 497 kts 118°
2026-04-30 20:23 62.43280 -9.48365 25376 ft 498 kts 118°
2026-04-30 20:23 62.42161 -9.41303 24899 ft 498 kts 118°
2026-04-30 20:24 62.41039 -9.34222 24442 ft 498 kts 118°
2026-04-30 20:24 62.39911 -9.27157 24003 ft 498 kts 119°
2026-04-30 20:24 62.38543 -9.20385 23536 ft 490 kts 123°
2026-04-30 20:24 62.37213 -9.13582 23024 ft 493 kts 122°
2026-04-30 20:25 62.34219 -9.00652 22121 ft 484 kts 126°
2026-04-30 20:25 62.32647 -8.94124 21664 ft 483 kts 126°
2026-04-30 20:26 62.29534 -8.81450 20811 ft 481 kts 126°
2026-04-30 20:26 62.26370 -8.68822 19989 ft 479 kts 126°
2026-04-30 20:26 62.24793 -8.62544 19589 ft 477 kts 126°
2026-04-30 20:27 62.21317 -8.50689 18998 ft 462 kts 136°
2026-04-30 20:27 62.17322 -8.39965 18430 ft 458 kts 136°
2026-04-30 20:28 62.13330 -8.29391 17872 ft 455 kts 136°
2026-04-30 20:28 62.09348 -8.18942 17405 ft 452 kts 136°
2026-04-30 20:29 62.05367 -8.08578 17019 ft 450 kts 136°
2026-04-30 20:30 62.00089 -7.92073 16564 ft 467 kts 112°
2026-04-30 20:30 62.01319 -7.71540 16286 ft 488 kts 59°
2026-04-30 20:31 62.09252 -7.59326 15974 ft 474 kts
2026-04-30 20:32 62.18223 -7.63454 15731 ft 433 kts 318°
2026-04-30 20:32 62.23040 -7.70987 15242 ft 417 kts 317°
2026-04-30 20:33 62.25339 -7.74612 14130 ft 406 kts 317°
2026-04-30 20:33 62.29582 -7.82094 11661 ft 379 kts 302°
2026-04-30 20:33 62.30890 -7.86789 10986 ft 352 kts 291°
2026-04-30 20:34 62.33003 -7.95282 10645 ft 295 kts 291°
2026-04-30 20:34 62.34853 -8.02531 9931 ft 264 kts 286°
2026-04-30 20:35 62.35264 -8.06218 9353 ft 247 kts 265°
2026-04-30 20:35 62.35010 -8.09714 8973 ft 228 kts 246°
2026-04-30 20:35 62.33171 -8.14555 8363 ft 202 kts 213°
2026-04-30 20:36 62.31902 -8.15671 8105 ft 197 kts 198°
2026-04-30 20:36 62.30526 -8.15893 7852 ft 203 kts 181°
2026-04-30 20:36 62.27878 -8.13334 7324 ft 224 kts 143°
2026-04-30 20:37 62.26946 -8.10568 7075 ft 233 kts 125°
2026-04-30 20:37 62.26174 -8.07517 6848 ft 232 kts 126°
2026-04-30 20:37 62.25398 -8.04493 6633 ft 231 kts 126°
2026-04-30 20:37 62.24617 -8.01474 6402 ft 230 kts 126°
2026-04-30 20:38 62.23840 -7.98480 6154 ft 229 kts 126°
2026-04-30 20:38 62.23072 -7.95518 5933 ft 225 kts 126°
2026-04-30 20:38 62.22325 -7.92625 5737 ft 220 kts 126°
2026-04-30 20:39 62.20861 -7.86998 5321 ft 212 kts 126°
2026-04-30 20:39 62.20147 -7.84269 5119 ft 208 kts 126°
2026-04-30 20:39 62.19447 -7.81588 4933 ft 204 kts 126°
2026-04-30 20:40 62.18075 -7.76346 4442 ft 201 kts 126°
2026-04-30 20:40 62.17396 -7.73756 4211 ft 196 kts 126°
2026-04-30 20:40 62.16747 -7.71262 3971 ft 188 kts 126°
2026-04-30 20:41 62.15518 -7.66539 3535 ft 178 kts 126°
2026-04-30 20:41 62.14914 -7.64246 3305 ft 177 kts 126°
2026-04-30 20:41 62.14310 -7.61956 3065 ft 176 kts 126°
2026-04-30 20:41 62.13708 -7.59679 2842 ft 176 kts 124°
2026-04-30 20:42 62.13107 -7.57411 2595 ft 175 kts 124°
2026-04-30 20:42 62.12503 -7.55144 2359 ft 175 kts 124°
2026-04-30 20:42 62.11304 -7.50633 1885 ft 175 kts 122°
2026-04-30 20:43 62.10713 -7.48402 1648 ft 167 kts 122°
2026-04-30 20:43 62.10158 -7.46310 1468 ft 157 kts 123°
2026-04-30 20:43 62.09632 -7.44334 1408 ft 153 kts 123°
2026-04-30 20:44 62.08594 -7.40431 1407 ft 150 kts 123°
2026-04-30 20:44 62.08202 -7.38350 1411 ft 154 kts 106°
2026-04-30 20:44 62.07638 -7.33940 1327 ft 155 kts 107°
2026-04-30 20:45 62.06802 -7.29517 365 ft 162 kts 121°
2026-04-30 20:45 62.06352 -7.27718 297 ft 79 kts 117°
2026-04-30 20:45 62.06234 -7.27225 283 ft 35 kts 116°
2026-04-30 20:46 62.05953 -7.26047 245 ft 1 kts 169°
2026-04-30 20:46 62.05957 -7.26085 244 ft 7 kts 294°
2026-04-30 20:47 62.05977 -7.26175 247 ft 0 kts 272°
2026-04-30 20:47 62.05985 -7.26219 249 ft 7 kts 297°
2026-04-30 20:48 62.06075 -7.26583 264 ft 34 kts 297°
2026-04-30 20:48 62.06172 -7.26977 274 ft 27 kts 300°
2026-04-30 20:48 62.06256 -7.27311 282 ft 25 kts 298°
2026-04-30 20:48 62.06358 -7.27732 298 ft 33 kts 298°
2026-04-30 20:49 62.06460 -7.28117 294 ft 19 kts 314°
2026-04-30 20:49 62.06562 -7.28096 288 ft 13 kts 13°
2026-04-30 20:49 62.06641 -7.28006 290 ft 13 kts 34°
2026-04-30 20:50 62.06689 -7.27940 291 ft 0 kts 32°